TimeEST,TemperatureF,Dew PointF,Humidity,Sea Level PressureIn,VisibilityMPH,Wind Direction,Wind SpeedMPH,Gust SpeedMPH,PrecipitationIn,Events,Conditions,WindDirDegrees,DateUTC
12:15 AM,53.6,48.2,82,29.91,10.0,SE,5.8,-,N/A,,Partly Cloudy,140,2011-11-29 05:15:00
12:35 AM,53.6,48.2,82,29.90,10.0,SSE,6.9,-,N/A,,Mostly Cloudy,150,2011-11-29 05:35:00
12:55 AM,53.6,48.2,82,29.89,10.0,SSE,5.8,-,N/A,,Scattered Clouds,150,2011-11-29 05:55:00
1:35 AM,53.6,48.2,82,29.87,10.0,SSE,5.8,-,N/A,,Overcast,150,2011-11-29 06:35:00
1:55 AM,53.6,48.2,82,29.87,10.0,SSE,4.6,-,N/A,,Overcast,150,2011-11-29 06:55:00
2:15 AM,53.6,48.2,82,29.87,10.0,SSE,3.5,-,N/A,,Overcast,160,2011-11-29 07:15:00
2:35 AM,53.6,48.2,82,29.86,10.0,SSE,3.5,-,N/A,,Scattered Clouds,150,2011-11-29 07:35:00
2:55 AM,53.6,48.2,82,29.86,10.0,SSE,4.6,-,N/A,,Mostly Cloudy,160,2011-11-29 07:55:00
3:15 AM,53.6,48.2,82,29.85,10.0,Calm,Calm,-,N/A,,Overcast,0,2011-11-29 08:15:00
3:35 AM,53.6,48.2,82,29.84,10.0,ESE,4.6,-,N/A,,Overcast,120,2011-11-29 08:35:00
3:55 AM,53.6,48.2,82,29.83,10.0,ESE,5.8,-,N/A,,Overcast,110,2011-11-29 08:55:00
4:15 AM,53.6,48.2,82,29.82,10.0,ESE,6.9,-,N/A,,Mostly Cloudy,120,2011-11-29 09:15:00
4:35 AM,53.6,48.2,82,29.81,10.0,ESE,6.9,-,N/A,,Mostly Cloudy,110,2011-11-29 09:35:00
4:55 AM,53.6,48.2,82,29.80,10.0,ESE,6.9,-,N/A,,Mostly Cloudy,110,2011-11-29 09:55:00
5:15 AM,53.6,50.0,88,29.79,10.0,SE,9.2,-,N/A,,Overcast,130,2011-11-29 10:15:00
5:35 AM,55.4,50.0,82,29.79,10.0,SE,9.2,-,N/A,,Overcast,130,2011-11-29 10:35:00
5:55 AM,55.4,51.8,88,29.79,10.0,SE,6.9,-,N/A,,Overcast,140,2011-11-29 10:55:00
6:15 AM,55.4,51.8,88,29.78,10.0,SSE,4.6,-,N/A,,Overcast,150,2011-11-29 11:15:00
6:35 AM,55.4,51.8,88,29.78,10.0,SSE,3.5,-,N/A,,Overcast,160,2011-11-29 11:35:00
7:35 AM,55.4,51.8,88,29.77,10.0,SSE,6.9,-,N/A,,Overcast,150,2011-11-29 12:35:00
7:55 AM,55.4,50.0,82,29.76,10.0,SSE,4.6,-,N/A,,Overcast,150,2011-11-29 12:55:00
8:15 AM,55.4,51.8,88,29.76,10.0,SSE,5.8,-,N/A,,Overcast,150,2011-11-29 13:15:00
8:35 AM,55.4,51.8,88,29.76,10.0,SE,6.9,-,N/A,,Overcast,140,2011-11-29 13:35:00
8:55 AM,57.2,50.0,77,29.75,10.0,ESE,9.2,-,N/A,,Overcast,120,2011-11-29 13:55:00
9:15 AM,57.2,51.8,82,29.75,10.0,SE,10.4,-,N/A,,Mostly Cloudy,130,2011-11-29 14:15:00
9:35 AM,55.4,51.8,88,29.74,10.0,ESE,8.1,-,N/A,,Overcast,110,2011-11-29 14:35:00
9:55 AM,-9999,-9999,N/A,29.73,10.0,ESE,10.4,-,N/A,,Overcast,110,2011-11-29 14:55:00
10:15 AM,55.4,51.8,88,29.73,10.0,SE,9.2,-,N/A,,Overcast,130,2011-11-29 15:15:00
10:35 AM,55.4,51.8,88,29.72,10.0,SE,9.2,-,N/A,,Overcast,130,2011-11-29 15:35:00
10:55 AM,55.4,51.8,88,29.70,9.0,ESE,10.4,-,N/A,,Overcast,110,2011-11-29 15:55:00
11:35 AM,55.4,51.8,88,29.66,10.0,ESE,8.1,-,N/A,,Mostly Cloudy,110,2011-11-29 16:35:00
11:55 AM,55.4,51.8,88,29.65,8.0,ESE,9.2,-,N/A,,Overcast,120,2011-11-29 16:55:00
12:15 PM,55.4,51.8,88,29.64,10.0,ESE,10.4,-,N/A,,Overcast,120,2011-11-29 17:15:00
12:35 PM,55.4,53.6,94,29.63,10.0,ESE,8.1,16.1,N/A,,Overcast,110,2011-11-29 17:35:00
12:55 PM,55.4,53.6,94,29.61,9.0,ESE,10.4,-,N/A,,Overcast,120,2011-11-29 17:55:00
1:35 PM,57.2,53.6,88,29.58,10.0,ESE,11.5,17.3,N/A,,Overcast,120,2011-11-29 18:35:00
1:55 PM,57.2,53.6,88,29.56,10.0,East,11.5,-,N/A,,Mostly Cloudy,100,2011-11-29 18:55:00
2:55 PM,60.8,53.6,77,29.52,10.0,SE,9.2,16.1,N/A,,Scattered Clouds,140,2011-11-29 19:55:00
3:15 PM,60.8,53.6,77,29.52,10.0,South,11.5,17.3,N/A,,Partly Cloudy,180,2011-11-29 20:15:00
3:35 PM,60.8,51.8,72,29.52,10.0,South,15.0,21.9,N/A,,Mostly Cloudy,180,2011-11-29 20:35:00
3:55 PM,60.8,48.2,63,29.53,10.0,South,17.3,25.3,N/A,,Mostly Cloudy,180,2011-11-29 20:55:00
4:15 PM,59.0,48.2,67,29.53,10.0,South,10.4,20.7,N/A,,Scattered Clouds,180,2011-11-29 21:15:00
4:35 PM,50.0,44.6,82,29.57,10.0,WSW,24.2,29.9,N/A,,Mostly Cloudy,250,2011-11-29 21:35:00
4:55 PM,46.4,42.8,87,29.58,10.0,WSW,18.4,28.8,N/A,,Overcast,250,2011-11-29 21:55:00
5:15 PM,46.4,41.0,81,29.58,9.0,WSW,18.4,24.2,N/A,,Overcast,250,2011-11-29 22:15:00
5:35 PM,44.6,39.2,81,29.58,10.0,West,18.4,25.3,N/A,,Overcast,260,2011-11-29 22:35:00
5:55 PM,44.6,39.2,81,29.58,10.0,SW,12.7,-,N/A,,Overcast,230,2011-11-29 22:55:00
6:15 PM,44.6,37.4,76,29.58,10.0,SW,9.2,-,N/A,,Overcast,230,2011-11-29 23:15:00
6:35 PM,44.6,35.6,71,29.58,10.0,SW,9.2,-,N/A,,Overcast,230,2011-11-29 23:35:00
6:55 PM,44.6,37.4,76,29.59,10.0,SW,12.7,-,N/A,,Overcast,230,2011-11-29 23:55:00
7:15 PM,42.8,37.4,81,29.60,10.0,SW,10.4,-,N/A,,Overcast,220,2011-11-30 00:15:00
7:35 PM,42.8,35.6,76,29.58,10.0,WSW,15.0,19.6,N/A,,Overcast,240,2011-11-30 00:35:00
7:55 PM,42.8,37.4,81,29.58,10.0,SW,10.4,-,N/A,,Overcast,230,2011-11-30 00:55:00
8:36 PM,42.8,35.6,76,29.59,10.0,SSW,9.2,-,N/A,,Overcast,210,2011-11-30 01:36:00
8:55 PM,42.8,35.6,76,29.58,10.0,SSW,10.4,-,N/A,,Overcast,210,2011-11-30 01:55:00
9:15 PM,42.8,35.6,76,29.58,10.0,SSW,6.9,-,N/A,,Overcast,210,2011-11-30 02:15:00
9:35 PM,41.0,35.6,81,29.56,10.0,SW,12.7,17.3,N/A,,Overcast,230,2011-11-30 02:35:00
9:55 PM,41.0,33.8,76,29.56,10.0,SW,10.4,16.1,N/A,,Overcast,230,2011-11-30 02:55:00
10:15 PM,39.2,33.8,81,29.54,10.0,WSW,10.4,-,N/A,,Overcast,240,2011-11-30 03:15:00
10:55 PM,39.2,33.8,81,29.54,10.0,SW,6.9,-,N/A,,Overcast,230,2011-11-30 03:55:00
11:15 PM,39.2,32.0,75,29.54,10.0,SSW,9.2,-,N/A,,Overcast,210,2011-11-30 04:15:00
11:35 PM,39.2,30.2,70,29.53,10.0,SSW,10.4,-,N/A,,Overcast,210,2011-11-30 04:35:00
11:55 PM,37.4,30.2,75,29.53,10.0,SW,11.5,-,N/A,,Overcast,220,2011-11-30 04:55:00